Time[GMT],salinity[psu](50m),sigma_t[kg/m^3](50m),conductivity[msiemens/cm](50m),temperature[C](50m)
2020-11-08 00:00,33.559,25.325,39.242,12.76
2020-11-08 01:00,33.246,25.242,38.149,11.93
2020-11-08 02:00,33.496,25.431,38.428,11.95
2020-11-08 03:00,33.384,25.412,37.977,11.59
2020-11-08 04:00,33.168,25.134,38.296,12.17
2020-11-08 05:00,33.057,25.027,38.284,12.29
2020-11-08 06:00,33.134,25.060,38.491,12.43
2020-11-08 07:00,33.558,25.057,40.478,14.08
2020-11-08 08:00,33.691,25.314,39.915,13.33
2020-11-08 09:00,33.531,25.293,39.266,12.81
2020-11-08 10:00,33.472,25.164,39.591,13.23
2020-11-08 11:00,33.466,25.239,39.214,12.83
2020-11-08 12:00,33.543,25.099,40.220,13.82
2020-11-08 13:00,33.467,25.117,39.785,13.44
2020-11-08 14:00,33.238,25.220,38.209,12.00
2020-11-08 15:00,33.571,25.400,38.939,12.42
2020-11-08 16:00,33.163,25.100,38.434,12.33
2020-11-08 17:00,32.791,24.913,37.559,11.79
2020-11-08 18:00,32.996,24.870,38.743,12.86
2020-11-08 19:00,33.544,25.086,40.284,13.89
2020-11-08 20:00,33.571,25.232,39.736,13.27
2020-11-08 21:00,33.578,25.018,40.747,14.34
2020-11-08 22:00,33.635,25.235,40.023,13.51
2020-11-08 23:00,33.688,25.229,40.292,13.73
2020-11-09 00:00,33.406,25.026,39.920,13.66
2020-11-09 01:00,33.216,24.978,39.265,13.17
2020-11-09 02:00,33.099,25.092,38.169,12.11
2020-11-09 03:00,33.217,25.306,37.686,11.45
2020-11-09 04:00,33.253,25.319,37.795,11.53
2020-11-09 05:00,33.106,25.131,38.010,11.93
2020-11-09 06:00,32.755,24.831,37.784,12.08
2020-11-09 07:00,32.970,24.871,38.613,12.75
2020-11-09 08:00,33.536,25.086,40.250,13.86
2020-11-09 09:00,33.929,25.259,41.267,14.48
2020-11-09 10:00,34.060,25.160,42.290,15.40
2020-11-09 11:00,33.957,25.115,42.025,15.24
2020-11-09 12:00,33.634,25.054,40.842,14.37
2020-11-09 13:00,33.524,25.115,40.064,13.67
2020-11-09 14:00,33.154,25.115,38.324,12.22
2020-11-09 15:00,32.996,25.046,37.897,11.93
2020-11-09 16:00,32.793,24.947,37.397,11.61
2020-11-09 17:00,32.827,24.972,37.443,11.63
2020-11-09 18:00,32.585,24.798,37.125,11.55
2020-11-09 19:00,32.640,24.814,37.309,11.69
2020-11-09 20:00,33.609,25.031,40.829,14.39
2020-11-09 21:00,33.888,25.087,41.836,15.13
2020-11-09 22:00,34.186,25.172,42.800,15.78
2020-11-09 23:00,34.113,25.334,41.766,14.80
2020-11-10 00:00,34.208,25.190,42.814,15.77
2020-11-10 01:00,34.049,25.149,42.287,15.41
2020-11-10 02:00,33.808,25.076,41.529,14.90
2020-11-10 03:00,33.347,25.017,39.691,13.48
2020-11-10 04:00,32.958,25.007,37.903,11.98
2020-11-10 05:00,33.022,25.066,37.928,11.94
2020-11-10 06:00,33.039,24.957,38.533,12.58
2020-11-10 07:00,32.902,24.854,38.369,12.56
2020-11-10 08:00,33.737,25.068,41.245,14.68
2020-11-10 09:00,33.814,25.071,41.577,14.94
2020-11-10 10:00,34.023,25.119,42.302,15.46
2020-11-10 11:00,33.768,25.488,39.460,12.76
2020-11-10 12:00,33.760,25.401,39.829,13.16
2020-11-10 13:00,33.954,25.343,40.994,14.17
2020-11-10 14:00,34.002,25.147,42.085,15.26
2020-11-10 15:00,33.580,25.022,40.736,14.33
2020-11-10 16:00,33.577,25.033,40.677,14.27
2020-11-10 17:00,33.754,25.135,41.023,14.43
2020-11-10 18:00,33.291,24.983,39.586,13.43
2020-11-10 19:00,33.979,25.115,42.126,15.32
2020-11-10 20:00,33.588,25.044,40.679,14.25
2020-11-10 21:00,33.560,25.033,40.600,14.20
2020-11-10 22:00,33.489,25.184,39.579,13.20
2020-11-10 23:00,33.393,25.356,38.294,11.92
2020-11-11 00:00,33.573,25.495,38.484,11.93
2020-11-11 01:00,33.440,25.430,38.159,11.72
2020-11-11 02:00,33.483,25.305,38.980,12.56
2020-11-11 03:00,33.752,25.064,41.333,14.76
2020-11-11 04:00,33.429,24.987,40.210,13.94
2020-11-11 05:00,33.453,25.000,40.258,13.96
2020-11-11 06:00,33.781,25.104,41.280,14.67
2020-11-11 07:00,33.978,25.261,41.473,14.65
2020-11-11 08:00,33.705,25.055,41.155,14.62
2020-11-11 09:00,33.511,25.386,38.720,12.25
2020-11-11 10:00,33.484,25.258,39.205,12.80
2020-11-11 11:00,33.426,25.369,38.395,11.99
2020-11-11 12:00,33.631,25.673,37.877,11.21
2020-11-11 13:00,33.699,25.729,37.933,11.19
2020-11-11 14:00,33.603,25.581,38.206,11.59
2020-11-11 15:00,33.578,25.104,40.358,13.93
2020-11-11 16:00,33.693,25.038,41.178,14.66
2020-11-11 17:00,33.936,25.139,41.828,15.06
2020-11-11 18:00,33.822,25.079,41.576,14.93
2020-11-11 19:00,33.934,25.131,41.854,15.09
2020-11-11 20:00,33.635,25.100,40.636,14.16
2020-11-11 21:00,33.311,25.106,39.111,12.90
2020-11-11 22:00,33.911,25.103,41.873,15.14
2020-11-11 23:00,33.385,25.190,39.060,12.76
2020-11-12 00:00,33.324,25.334,38.068,11.75
2020-11-12 01:00,33.589,25.609,37.994,11.38
2020-11-12 02:00,33.588,25.649,37.781,11.15
2020-11-12 03:00,33.510,25.522,38.046,11.52
2020-11-12 04:00,33.449,25.303,38.823,12.43
2020-11-12 05:00,33.748,25.298,40.256,13.62
2020-11-12 06:00,33.649,25.353,39.537,12.97
2020-11-12 07:00,33.483,25.312,38.946,12.52
2020-11-12 08:00,33.569,25.108,40.298,13.87
2020-11-12 09:00,33.574,25.126,40.243,13.81
2020-11-12 10:00,33.514,25.140,39.899,13.51
2020-11-12 11:00,33.399,25.183,39.159,12.85
2020-11-12 12:00,33.301,25.291,38.170,11.89
2020-11-12 13:00,33.758,25.560,39.066,12.34
2020-11-12 14:00,33.518,25.631,37.529,10.95
2020-11-12 15:00,33.506,25.603,37.613,11.06
2020-11-12 16:00,33.452,25.298,38.865,12.47
2020-11-12 17:00,33.466,25.220,39.302,12.93
2020-11-12 18:00,33.569,25.243,39.679,13.21
2020-11-12 19:00,33.391,25.211,38.994,12.68
2020-11-12 20:00,33.609,25.455,38.859,12.29
2020-11-12 21:00,33.379,25.062,39.634,13.38
2020-11-12 22:00,33.287,25.084,39.097,12.91
2020-11-12 23:00,33.105,25.076,38.278,12.23
2020-11-13 00:00,33.636,25.304,39.704,13.16
2020-11-13 01:00,33.829,25.300,40.618,13.92
2020-11-13 02:00,33.937,25.463,40.367,13.53
2020-11-13 03:00,33.921,25.828,38.529,11.59
2020-11-13 04:00,33.548,25.559,38.045,11.48
2020-11-13 05:00,33.507,25.265,39.282,12.86
2020-11-13 06:00,33.654,25.237,40.096,13.56
2020-11-13 07:00,33.777,25.234,40.679,14.04
2020-11-13 08:00,33.721,25.401,39.646,13.01
2020-11-13 09:00,33.571,25.151,40.115,13.68
2020-11-13 10:00,33.125,24.868,39.350,13.37
2020-11-13 11:00,33.127,24.869,39.357,13.37
2020-11-13 12:00,33.558,25.071,40.416,14.01
2020-11-13 13:00,33.463,25.434,38.253,11.80
2020-11-13 14:00,33.468,25.583,37.522,11.00
2020-11-13 15:00,33.573,25.725,37.314,10.66
2020-11-13 16:00,33.703,25.796,37.602,10.83
2020-11-13 17:00,33.537,25.228,39.598,13.16
2020-11-13 18:00,33.472,25.244,39.216,12.83
2020-11-13 19:00,33.413,25.274,38.789,12.43
2020-11-13 20:00,33.569,25.591,37.987,11.39
2020-11-13 21:00,33.450,25.180,39.415,13.06
2020-11-13 22:00,33.100,24.867,39.243,13.28
2020-11-13 23:00,33.226,24.889,39.720,13.65
2020-11-14 00:00,33.969,25.406,40.777,13.93
2020-11-14 01:00,34.347,25.213,43.330,16.14
2020-11-14 02:00,34.472,25.286,43.570,16.25
2020-11-14 03:00,34.748,25.705,42.985,15.33
2020-11-14 04:00,34.555,25.651,42.353,14.90
2020-11-14 05:00,33.779,25.278,40.488,13.83
2020-11-14 06:00,33.538,25.163,39.906,13.49
2020-11-14 07:00,33.432,25.278,38.862,12.49
2020-11-14 08:00,33.476,25.219,39.353,12.97
2020-11-14 09:00,33.561,25.259,39.565,13.10
2020-11-14 10:00,33.570,25.358,39.136,12.63
2020-11-14 11:00,33.206,24.866,39.731,13.68
2020-11-14 12:00,33.767,25.062,41.403,14.81
2020-11-14 13:00,33.751,25.063,41.328,14.75
2020-11-14 14:00,33.675,25.282,39.993,13.43
2020-11-14 15:00,33.492,25.474,38.195,11.70
2020-11-14 16:00,34.089,25.888,39.059,11.97
2020-11-14 17:00,34.089,25.872,39.136,12.05
2020-11-14 18:00,33.466,25.270,39.062,12.67
2020-11-14 19:00,33.483,25.179,39.573,13.20
2020-11-14 20:00,33.674,25.283,39.982,13.42
2020-11-14 21:00,33.696,25.364,39.703,13.10
2020-11-14 22:00,33.674,25.326,39.781,13.20
2020-11-14 23:00,33.253,24.892,39.829,13.73
2020-11-15 00:00,33.435,25.008,40.137,13.85
2020-11-15 01:00,32.938,24.751,39.025,13.23
2020-11-15 02:00,33.224,25.062,38.909,12.78
2020-11-15 03:00,33.703,25.436,39.392,12.76
2020-11-15 04:00,33.955,25.919,38.236,11.24
2020-11-15 05:00,33.908,25.915,38.024,11.06
2020-11-15 06:00,33.592,25.702,37.535,10.88
2020-11-15 07:00,33.362,25.023,39.733,13.51
2020-11-15 08:00,33.216,24.975,39.275,13.18
2020-11-15 09:00,33.507,25.226,39.468,13.06
2020-11-15 10:00,33.512,25.364,38.832,12.37
2020-11-15 11:00,33.500,25.286,39.153,12.73
2020-11-15 12:00,33.194,24.963,39.232,13.16
2020-11-15 13:00,33.397,25.026,39.886,13.63
2020-11-15 14:00,33.135,25.180,37.910,11.79
2020-11-15 15:00,32.966,25.311,36.400,10.32
2020-11-15 16:00,33.374,25.664,36.617,10.11
2020-11-15 17:00,33.614,25.800,37.126,10.41
2020-11-15 18:00,33.612,25.631,37.995,11.35
2020-11-15 19:00,33.639,25.107,40.623,14.14
2020-11-15 20:00,33.540,25.260,39.463,13.01
2020-11-15 21:00,33.533,25.250,39.479,13.04
2020-11-15 22:00,33.410,25.115,39.531,13.23
2020-11-15 23:00,33.729,25.225,40.501,13.91
2020-11-16 00:00,33.352,24.997,39.807,13.60
2020-11-16 01:00,32.544,24.908,36.367,10.75
2020-11-16 02:00,32.520,24.765,36.970,11.45
2020-11-16 03:00,33.815,25.325,40.442,13.75
2020-11-16 04:00,33.829,25.636,39.035,12.23
2020-11-16 05:00,34.274,25.807,40.336,13.12
2020-11-16 06:00,33.762,25.566,39.049,12.32
2020-11-16 07:00,34.263,25.366,42.296,15.18
2020-11-16 08:00,33.088,24.565,40.547,14.70
2020-11-16 09:00,33.486,25.096,39.973,13.62
2020-11-16 10:00,33.903,25.221,41.317,14.57
2020-11-16 11:00,34.073,25.365,41.440,14.50
2020-11-16 12:00,32.892,24.824,38.468,12.68
2020-11-16 13:00,32.322,24.702,36.312,10.94
2020-11-16 14:00,33.179,25.117,38.430,12.31
2020-11-16 15:00,32.333,24.613,36.812,11.49
2020-11-16 16:00,32.956,25.364,36.065,9.96
2020-11-16 17:00,33.501,25.643,37.378,10.81
2020-11-16 18:00,33.981,25.645,39.719,12.79
2020-11-16 19:00,34.444,25.654,41.832,14.49
2020-11-16 20:00,34.498,25.285,43.690,16.34
2020-11-16 21:00,34.293,25.245,42.953,15.82
2020-11-16 22:00,33.984,25.181,41.857,15.04
2020-11-16 23:00,34.016,25.304,41.453,14.58
2020-11-17 00:00,34.597,25.405,43.618,16.15
2020-11-17 01:00,33.865,25.119,41.598,14.90
2020-11-17 02:00,34.102,25.194,42.329,15.39
2020-11-17 03:00,32.790,25.000,37.120,11.31
2020-11-17 04:00,33.224,25.554,36.433,10.07
2020-11-17 05:00,33.153,25.845,34.379,7.85
2020-11-17 06:00,33.696,26.155,35.590,8.63
2020-11-17 07:00,33.091,25.743,34.644,8.22
2020-11-17 08:00,33.007,25.462,35.797,9.60
2020-11-17 09:00,32.821,25.067,36.933,11.07
2020-11-17 10:00,32.491,24.748,36.916,11.42
2020-11-17 11:00,33.285,25.487,37.103,10.74
2020-11-17 12:00,33.307,25.554,36.856,10.45
2020-11-17 13:00,32.527,25.061,35.468,9.76
2020-11-17 14:00,32.482,24.927,35.952,10.35
2020-11-17 15:00,32.225,24.676,35.961,10.65
2020-11-17 16:00,32.806,25.416,34.982,8.90
2020-11-17 17:00,33.318,25.792,35.612,9.06
2020-11-17 18:00,33.270,25.856,34.979,8.40
2020-11-17 19:00,33.447,26.036,34.898,8.13
2020-11-17 20:00,33.114,25.811,34.364,7.88
2020-11-17 21:00,32.097,24.550,35.966,10.80
2020-11-17 22:00,32.042,24.490,35.998,10.90
2020-11-17 23:00,32.135,24.569,36.063,10.87
2020-11-18 00:00,32.301,24.782,35.791,10.38
2020-11-18 01:00,32.150,24.574,36.111,10.91
2020-11-18 02:00,32.462,24.878,36.110,10.55
2020-11-18 03:00,32.365,24.746,36.301,10.88
2020-11-18 04:00,33.108,25.538,35.911,9.62
2020-11-18 05:00,33.893,25.804,38.510,11.60
2020-11-18 06:00,34.162,25.596,40.802,13.73
2020-11-18 07:00,34.211,25.642,40.815,13.69
2020-11-18 08:00,34.809,26.015,41.867,14.12
2020-11-18 09:00,33.504,25.705,37.070,10.47
2020-11-18 10:00,33.007,25.130,37.535,11.52
2020-11-18 11:00,32.624,24.905,36.777,11.12
2020-11-18 12:00,32.766,25.066,36.666,10.83
2020-11-18 13:00,32.316,24.711,36.235,10.86
2020-11-18 14:00,32.454,24.783,36.554,11.06
2020-11-18 15:00,33.264,25.215,38.367,12.14
2020-11-18 16:00,33.008,25.183,37.274,11.24
2020-11-18 17:00,33.167,25.397,36.974,10.73
2020-11-18 18:00,33.465,25.720,36.791,10.20
2020-11-18 19:00,33.176,25.389,37.060,10.81
2020-11-18 20:00,33.082,25.507,35.947,9.69
2020-11-18 21:00,32.844,25.264,36.026,10.03
2020-11-18 22:00,32.690,25.064,36.293,10.50
2020-11-18 23:00,32.574,24.941,36.346,10.69
2020-11-19 00:00,32.516,24.883,36.354,10.77
2020-11-19 01:00,32.673,25.046,36.299,10.53
2020-11-19 02:00,33.064,25.400,36.428,10.24
2020-11-19 03:00,32.436,24.810,36.332,10.83
2020-11-19 04:00,32.244,24.649,36.195,10.90
2020-11-19 05:00,33.721,25.502,39.164,12.49
2020-11-19 06:00,34.211,25.616,40.937,13.82
2020-11-19 07:00,34.473,25.677,41.862,14.49
2020-11-19 08:00,34.221,25.587,41.115,13.99
2020-11-19 09:00,34.348,25.635,41.478,14.23
2020-11-19 10:00,34.001,25.372,41.082,14.21
2020-11-19 11:00,33.783,25.263,40.577,13.92
2020-11-19 12:00,33.742,25.213,40.618,14.01
2020-11-19 13:00,33.020,25.299,36.741,10.63
2020-11-19 14:00,33.491,25.247,39.294,12.89
2020-11-19 15:00,32.397,24.714,36.622,11.20
2020-11-19 16:00,32.294,24.717,36.095,10.73
2020-11-19 17:00,33.217,25.208,38.172,11.98
2020-11-19 18:00,33.361,25.280,38.512,12.19
2020-11-19 19:00,33.562,25.378,39.006,12.50
2020-11-19 20:00,33.792,25.515,39.440,12.71
2020-11-19 21:00,34.396,25.717,41.328,14.02
2020-11-19 22:00,34.357,25.648,41.461,14.20
2020-11-19 23:00,33.444,25.102,39.750,13.43
2020-11-20 00:00,34.181,25.559,41.054,13.98
2020-11-20 01:00,34.146,25.522,41.066,14.03
2020-11-20 02:00,34.010,25.440,40.811,13.91
2020-11-20 03:00,33.244,25.210,38.293,12.09
2020-11-20 04:00,32.694,24.948,36.912,11.19
2020-11-20 05:00,33.335,25.193,38.810,12.54
2020-11-20 06:00,33.887,25.515,39.890,13.08
2020-11-20 07:00,34.208,25.825,39.940,12.78
2020-11-20 08:00,33.588,25.704,37.502,10.85
2020-11-20 09:00,33.683,25.825,37.351,10.58
2020-11-20 10:00,33.838,25.583,39.332,12.54
2020-11-20 11:00,34.108,25.444,41.244,14.26
2020-11-20 12:00,34.000,25.297,41.416,14.56
2020-11-20 13:00,34.184,25.385,41.854,14.81
2020-11-20 14:00,34.277,25.533,41.619,14.46
2020-11-20 15:00,34.005,25.371,41.105,14.23
2020-11-20 16:00,33.890,25.350,40.674,13.90
2020-11-20 17:00,33.333,25.306,38.252,11.94
2020-11-20 18:00,33.764,25.362,40.034,13.37
2020-11-20 19:00,33.664,25.383,39.466,12.88
2020-11-20 20:00,33.671,25.629,38.299,11.62
2020-11-20 21:00,34.149,26.037,38.600,11.42
2020-11-20 22:00,34.224,26.004,39.141,11.91
2020-11-20 23:00,33.695,25.513,38.987,12.33
2020-11-21 00:00,33.535,25.254,39.463,13.02
2020-11-21 01:00,33.745,25.364,39.938,13.29
2020-11-21 02:00,33.684,25.394,39.506,12.90
2020-11-21 03:00,33.661,25.549,38.651,12.01
2020-11-21 04:00,33.567,25.286,39.464,12.99
2020-11-21 05:00,33.715,25.420,39.531,12.89
2020-11-21 06:00,33.654,25.371,39.478,12.90
2020-11-21 07:00,33.690,25.286,40.043,13.46
2020-11-21 08:00,33.903,25.416,40.429,13.63
2020-11-21 09:00,33.838,25.489,39.781,13.02
2020-11-21 10:00,33.870,25.901,37.906,10.98
2020-11-21 11:00,33.849,25.852,38.047,11.15
2020-11-21 12:00,33.849,25.787,38.378,11.51
2020-11-21 13:00,33.944,25.445,40.486,13.65
2020-11-21 14:00,33.941,25.522,40.112,13.25
2020-11-21 15:00,33.939,25.520,40.111,13.26
2020-11-21 16:00,33.908,25.315,40.914,14.14
2020-11-21 17:00,33.477,25.283,39.052,12.65
2020-11-21 18:00,33.431,25.323,38.640,12.25
2020-11-21 19:00,33.242,25.191,38.374,12.18
2020-11-21 20:00,33.673,25.709,37.903,11.19
2020-11-21 21:00,33.422,25.422,38.115,11.69
2020-11-21 22:00,33.512,25.535,37.987,11.46
2020-11-21 23:00,33.764,25.813,37.820,11.00
2020-11-22 00:00,33.747,25.842,37.589,10.77
2020-11-22 01:00,33.766,25.823,37.783,10.96
2020-11-22 02:00,33.778,25.830,37.805,10.97
2020-11-22 03:00,33.506,25.520,38.035,11.51
2020-11-22 04:00,33.588,25.640,37.833,11.20
2020-11-22 05:00,33.408,25.272,38.777,12.43
2020-11-22 06:00,33.491,25.205,39.492,13.10
2020-11-22 07:00,33.369,25.338,38.266,11.92
2020-11-22 08:00,33.460,25.439,38.210,11.76
2020-11-22 09:00,33.411,25.297,38.672,12.31
2020-11-22 10:00,33.402,25.257,38.820,12.48
2020-11-22 11:00,33.582,25.549,38.258,11.67
2020-11-22 12:00,33.563,25.530,38.265,11.70
2020-11-22 13:00,33.427,25.175,39.330,13.00
2020-11-22 14:00,33.585,25.542,38.310,11.73
2020-11-22 15:00,33.378,25.232,38.827,12.51
2020-11-22 16:00,33.395,25.179,39.162,12.85
2020-11-22 17:00,33.410,25.142,39.407,13.10
2020-11-22 18:00,33.149,25.032,38.693,12.63
2020-11-22 19:00,33.029,25.041,38.081,12.10
2020-11-22 20:00,33.113,25.098,38.206,12.14
2020-11-22 21:00,33.268,25.242,38.254,12.02
2020-11-22 22:00,33.242,25.197,38.347,12.15
2020-11-22 23:00,33.370,25.379,38.072,11.71
2020-11-23 00:00,33.519,25.466,38.369,11.86
2020-11-23 01:00,33.170,25.135,38.299,12.18
2020-11-23 02:00,33.325,25.289,38.293,12.00
2020-11-23 03:00,33.443,25.355,38.542,12.13
2020-11-23 04:00,33.375,25.298,38.494,12.16
2020-11-23 05:00,33.349,25.300,38.361,12.04
2020-11-23 06:00,33.258,25.238,38.225,12.00
2020-11-23 07:00,33.065,25.048,38.222,12.21
2020-11-23 08:00,33.193,25.097,38.596,12.47
2020-11-23 09:00,33.178,25.139,38.316,12.19
2020-11-23 10:00,33.078,25.156,37.754,11.68
2020-11-23 11:00,33.490,25.481,38.149,11.66
2020-11-23 12:00,33.736,25.765,37.928,11.15
2020-11-23 13:00,33.422,25.381,38.314,11.91
2020-11-23 14:00,33.381,25.299,38.520,12.18
2020-11-23 15:00,33.348,25.258,38.558,12.26
2020-11-23 16:00,33.116,25.065,38.381,12.33
2020-11-23 17:00,33.089,25.077,38.195,12.15
2020-11-23 18:00,32.917,25.010,37.692,11.80
2020-11-23 19:00,32.714,25.031,36.584,10.80
2020-11-23 20:00,32.676,24.997,36.573,10.83
2020-11-23 21:00,33.117,25.187,37.787,11.68
2020-11-23 22:00,33.388,25.352,38.293,11.93
2020-11-23 23:00,33.376,25.355,38.218,11.86
2020-11-24 00:00,33.644,25.587,38.379,11.73
2020-11-24 01:00,33.639,25.608,38.244,11.59
2020-11-24 02:00,33.219,25.308,37.685,11.45
2020-11-24 03:00,32.670,24.977,36.640,10.91
2020-11-24 04:00,32.748,25.025,36.782,10.98
2020-11-24 05:00,32.749,24.942,37.212,11.46
2020-11-24 06:00,32.955,25.097,37.449,11.49
2020-11-24 07:00,32.708,24.950,36.965,11.23
2020-11-24 08:00,33.263,25.341,37.736,11.46
2020-11-24 09:00,33.483,25.449,38.274,11.80
2020-11-24 10:00,33.486,25.271,39.152,12.74
2020-11-24 11:00,33.649,25.461,39.018,12.42
2020-11-24 12:00,33.899,25.825,38.434,11.51
2020-11-24 13:00,34.410,26.219,38.970,11.53
2020-11-24 14:00,34.454,26.256,39.004,11.52
2020-11-24 15:00,33.925,25.831,38.535,11.59
2020-11-24 16:00,33.239,25.149,38.566,12.39
2020-11-24 17:00,33.228,25.140,38.552,12.39
2020-11-24 18:00,33.208,25.131,38.507,12.36
2020-11-24 19:00,33.162,25.125,38.310,12.20
2020-11-24 20:00,33.163,25.153,38.179,12.05
2020-11-24 21:00,33.176,25.130,38.353,12.23
2020-11-24 22:00,33.237,25.187,38.370,12.18
2020-11-24 23:00,33.128,25.041,38.550,12.50
2020-11-25 00:00,34.013,25.648,39.853,12.90
2020-11-25 01:00,33.256,25.201,38.392,12.18
2020-11-25 02:00,33.235,25.200,38.299,12.10
2020-11-25 03:00,33.658,25.355,39.566,12.99
2020-11-25 04:00,33.335,25.229,38.637,12.36
2020-11-25 05:00,33.219,25.190,38.271,12.09
2020-11-25 06:00,33.425,25.272,38.857,12.49
2020-11-25 07:00,33.522,25.318,39.103,12.65
2020-11-25 08:00,33.132,25.176,37.916,11.80
2020-11-25 09:00,33.331,25.232,38.603,12.33
2020-11-25 10:00,33.390,25.231,38.887,12.57
2020-11-25 11:00,33.341,25.224,38.690,12.41
2020-11-25 12:00,33.259,25.205,38.389,12.17
2020-11-25 13:00,33.389,25.266,38.718,12.38
2020-11-25 14:00,33.796,25.458,39.735,13.02
2020-11-25 15:00,33.815,25.450,39.857,13.13
2020-11-25 16:00,33.293,25.206,38.545,12.30
2020-11-25 17:00,33.220,25.167,38.383,12.21
2020-11-25 18:00,33.272,25.199,38.481,12.26
2020-11-25 19:00,33.277,25.200,38.501,12.27
2020-11-25 20:00,33.314,25.214,38.608,12.35
2020-11-25 21:00,33.200,25.175,38.250,12.09
2020-11-25 22:00,33.137,25.159,38.026,11.92
2020-11-25 23:00,33.181,25.166,38.199,12.06
2020-11-26 00:00,33.159,25.197,37.941,11.80
2020-11-26 01:00,33.271,25.324,37.860,11.58
2020-11-26 02:00,33.517,25.406,38.651,12.17
2020-11-26 03:00,33.551,25.362,39.029,12.54
2020-11-26 04:00,33.310,25.227,38.525,12.26
2020-11-26 05:00,33.053,25.124,37.788,11.75
2020-11-26 06:00,33.116,25.140,38.017,11.93
2020-11-26 07:00,33.250,25.200,38.374,12.17
2020-11-26 08:00,33.175,25.178,38.113,11.97
2020-11-26 09:00,33.103,25.139,37.958,11.88
2020-11-26 10:00,32.956,25.085,37.509,11.55
2020-11-26 11:00,33.099,25.180,37.740,11.65
2020-11-26 12:00,32.832,25.027,37.191,11.34
2020-11-26 13:00,33.228,25.299,37.772,11.54
2020-11-26 14:00,33.268,25.352,37.709,11.42
2020-11-26 15:00,33.668,25.648,38.188,11.50
2020-11-26 16:00,33.234,25.313,37.736,11.49
2020-11-26 17:00,33.143,25.225,37.731,11.59
2020-11-26 18:00,33.351,25.285,38.442,12.13
2020-11-26 19:00,33.563,25.287,39.445,12.97
2020-11-26 20:00,33.500,25.262,39.265,12.85
2020-11-26 21:00,33.008,25.110,37.638,11.64
2020-11-26 22:00,32.699,25.016,36.588,10.82
2020-11-26 23:00,32.721,25.052,36.514,10.72
2020-11-27 00:00,33.092,25.271,37.247,11.11
2020-11-27 01:00,33.187,25.299,37.571,11.36
2020-11-27 02:00,33.388,25.457,37.772,11.36
2020-11-27 03:00,33.504,25.549,37.878,11.35
2020-11-27 04:00,33.624,25.686,37.776,11.10
2020-11-27 05:00,33.224,25.317,37.664,11.42
2020-11-27 06:00,33.084,25.171,37.706,11.63
2020-11-27 07:00,33.236,25.240,38.103,11.89
2020-11-27 08:00,33.299,25.258,38.324,12.06
2020-11-27 09:00,33.377,25.344,38.277,11.92
2020-11-27 10:00,33.303,25.240,38.430,12.17
2020-11-27 11:00,33.145,25.231,37.708,11.56
2020-11-27 12:00,33.082,25.202,37.541,11.45
2020-11-27 13:00,33.335,25.450,37.539,11.16
2020-11-27 14:00,33.312,25.406,37.651,11.31
2020-11-27 15:00,33.375,25.494,37.511,11.09
2020-11-27 16:00,33.333,25.454,37.508,11.13
2020-11-27 17:00,33.348,25.442,37.645,11.26
2020-11-27 18:00,33.193,25.236,37.916,11.73
2020-11-27 19:00,33.229,25.247,38.034,11.82
2020-11-27 20:00,33.192,25.223,37.976,11.80
2020-11-27 21:00,33.208,25.249,37.926,11.73
2020-11-27 22:00,33.190,25.267,37.750,11.55
2020-11-27 23:00,33.145,25.320,37.260,11.07
2020-11-28 00:00,33.068,25.261,37.176,11.06
2020-11-28 01:00,33.085,25.273,37.198,11.07
2020-11-28 02:00,33.026,25.222,37.163,11.09
2020-11-28 03:00,33.318,25.476,37.325,10.95
2020-11-28 04:00,33.234,25.405,37.268,10.98
2020-11-28 05:00,33.280,25.445,37.292,10.95
2020-11-28 06:00,33.058,25.249,37.187,11.08
2020-11-28 07:00,33.059,25.251,37.181,11.08
2020-11-28 08:00,33.038,25.233,37.169,11.09
2020-11-28 09:00,33.108,25.291,37.219,11.06
2020-11-28 10:00,33.229,25.398,37.281,11.00
2020-11-28 11:00,33.099,25.276,37.255,11.11
2020-11-28 12:00,33.379,25.501,37.501,11.07
2020-11-28 13:00,33.065,25.245,37.240,11.14
2020-11-28 14:00,33.073,25.260,37.210,11.09
2020-11-28 15:00,33.265,25.368,37.610,11.32
2020-11-28 16:00,33.505,25.612,37.563,11.00
2020-11-28 17:00,33.301,25.359,37.833,11.52
2020-11-28 18:00,33.084,25.231,37.404,11.29
2020-11-28 19:00,33.059,25.196,37.458,11.38
2020-11-28 20:00,33.229,25.326,37.645,11.40
2020-11-28 21:00,33.277,25.374,37.637,11.33
2020-11-28 22:00,33.286,25.356,37.775,11.48
2020-11-28 23:00,33.097,25.241,37.421,11.30
2020-11-29 00:00,33.016,25.159,37.432,11.40
2020-11-29 01:00,32.967,25.146,37.257,11.26
2020-11-29 02:00,32.903,25.219,36.561,10.56
2020-11-29 03:00,33.358,25.536,37.213,10.78
2020-11-29 04:00,33.649,25.676,37.952,11.27
2020-11-29 05:00,33.645,25.682,37.901,11.22
2020-11-29 06:00,33.265,25.442,37.234,10.91
2020-11-29 07:00,33.236,25.413,37.235,10.94
2020-11-29 08:00,32.995,25.214,37.048,11.00
2020-11-29 09:00,33.229,25.441,37.055,10.75
2020-11-29 10:00,32.963,25.221,36.859,10.83
2020-11-29 11:00,32.499,24.916,36.096,10.50
2020-11-29 12:00,32.398,24.837,36.000,10.50
2020-11-29 13:00,32.477,24.915,35.989,10.40
2020-11-29 14:00,32.583,25.000,36.084,10.39
2020-11-29 15:00,32.696,25.083,36.225,10.42
2020-11-29 16:00,33.012,25.437,35.960,9.78
2020-11-29 17:00,32.983,25.497,35.477,9.27
2020-11-29 18:00,32.978,25.447,35.725,9.55
2020-11-29 19:00,32.719,25.042,36.550,10.76
2020-11-29 20:00,32.984,25.462,35.677,9.49
2020-11-29 21:00,32.977,25.428,35.826,9.67
2020-11-29 22:00,32.838,25.240,36.123,10.15
2020-11-29 23:00,32.758,25.128,36.305,10.44
2020-11-30 00:00,32.587,24.992,36.146,10.45
2020-11-30 01:00,32.561,24.975,36.104,10.44
2020-11-30 02:00,32.997,25.313,36.549,10.45